| time (UTC) | temp F | wind direction | speed knots | gust knots | rain 1hr in | rain 24hr in | rain mn in | humidity % | barometer mb |
| 20260505124906 | 74 | 164 | 3.5 | 6.1 | 0.00 | 0.00 | 0.00 | 92 | 1007.5 |
| 20260505124406 | 74 | 164 | 3.5 | 6.1 | 0.00 | 0.00 | 0.00 | 92 | 1007.5 |
| 20260505123906 | 74 | 155 | 3.5 | 5.2 | 0.00 | 0.00 | 0.00 | 92 | 1007.2 |
| 20260505122906 | 74 | 133 | 2.6 | 7.0 | 0.00 | 0.00 | 0.00 | 92 | 1007.1 |
| 20260505122405 | 74 | 130 | 2.6 | 6.1 | 0.00 | 0.00 | 0.00 | 92 | 1006.9 |
| 20260505120906 | 74 | 142 | 2.6 | 6.1 | 0.00 | 0.00 | 0.00 | 92 | 1007.2 |
| 20260505115906 | 73 | 125 | 2.6 | 6.1 | 0.00 | 0.00 | 0.00 | 92 | 1007.4 |
| 20260505114905 | 73 | 141 | 2.6 | 6.1 | 0.00 | 0.00 | 0.00 | 92 | 1007.1 |
| 20260505113906 | 73 | 157 | 1.7 | 4.3 | 0.00 | 0.00 | 0.00 | 92 | 1007.1 |
| 20260505100905 | 73 | 164 | 2.6 | 7.8 | 0.00 | 0.00 | 0.00 | 91 | 1007.1 |
| 20260505095405 | 73 | 162 | 2.6 | 7.0 | 0.00 | 0.00 | 0.00 | 91 | 1007.0 |
| 20260505094405 | 73 | 115 | 3.5 | 6.1 | 0.00 | 0.00 | 0.00 | 91 | 1007.1 |
| 20260505093905 | 73 | 155 | 2.6 | 5.2 | 0.00 | 0.00 | 0.00 | 91 | 1007.3 |
| 20260505093405 | 73 | 156 | 1.7 | 4.3 | 0.00 | 0.00 | 0.00 | 91 | 1007.4 |
| 20260505091405 | 73 | 143 | 3.5 | 5.2 | 0.00 | 0.00 | 0.00 | 91 | 1007.4 |
| 20260505090905 | 73 | 159 | 1.7 | 5.2 | 0.00 | 0.00 | 0.00 | 91 | 1007.4 |
| 20260505090405 | 73 | 160 | 1.7 | 6.1 | 0.00 | 0.00 | 0.00 | 91 | 1007.4 |
| 20260505084906 | 72 | 114 | 2.6 | 7.0 | 0.00 | 0.00 | 0.00 | 91 | 1007.3 |
| 20260505083905 | 72 | 109 | 1.7 | 5.2 | 0.00 | 0.00 | 0.00 | 91 | 1007.3 |
| 20260505081905 | 72 | 156 | 1.7 | 4.3 | 0.00 | 0.00 | 0.00 | 90 | 1007.6 |
| 20260505081405 | 72 | 154 | 1.7 | 4.3 | 0.00 | 0.00 | 0.00 | 90 | 1007.6 |
| 20260505080406 | 72 | 166 | 1.7 | 4.3 | 0.00 | 0.00 | 0.00 | 91 | 1007.7 |
| 20260505075905 | 72 | 137 | 2.6 | 4.3 | 0.00 | 0.00 | 0.00 | 91 | 1007.7 |
| 20260505075405 | 72 | 146 | 1.7 | 5.2 | 0.00 | 0.00 | 0.00 | 91 | 1007.7 |
| 20260505073905 | 71 | 113 | 2.6 | 6.1 | 0.00 | 0.00 | 0.00 | 91 | 1007.7 |
| 20260505071905 | 71 | 148 | 3.5 | 7.0 | 0.00 | 0.00 | 0.00 | 91 | 1007.9 |
| 20260505071405 | 71 | 138 | 1.7 | 4.3 | 0.00 | 0.00 | 0.00 | 91 | 1007.9 |
| 20260505070905 | 71 | 125 | 2.6 | 6.1 | 0.00 | 0.00 | 0.00 | 90 | 1008.1 |
| 20260505070405 | 71 | 168 | 2.6 | 6.1 | 0.00 | 0.00 | 0.00 | 90 | 1008.1 |
| 20260505065905 | 71 | 124 | 2.6 | 5.2 | 0.00 | 0.00 | 0.00 | 90 | 1008.2 |
| 20260505064406 | 71 | 120 | 1.7 | 4.3 | 0.00 | 0.00 | 0.00 | 90 | 1008.7 |
| 20260505063905 | 71 | 137 | 2.6 | 4.3 | 0.00 | 0.00 | 0.00 | 90 | 1008.7 |
| 20260505061405 | 71 | 173 | 1.7 | 4.3 | 0.00 | 0.00 | 0.00 | 89 | 1008.8 |
| 20260505060905 | 71 | 111 | 1.7 | 5.2 | 0.00 | 0.00 | 0.00 | 89 | 1008.8 |
| 20260505060406 | 71 | 154 | 1.7 | 5.2 | 0.00 | 0.00 | 0.00 | 89 | 1008.8 |
| 20260505054905 | 71 | 153 | 2.6 | 4.3 | 0.00 | 0.00 | 0.00 | 89 | 1009.1 |
| 20260505053905 | 70 | 150 | 1.7 | 5.2 | 0.00 | 0.00 | 0.00 | 89 | 1009.0 |
| 20260505051905 | 70 | 138 | 1.7 | 2.6 | 0.00 | 0.00 | 0.00 | 88 | 1009.1 |
| 20260505035905 | 71 | 143 | 1.7 | 4.3 | 0.00 | 0.00 | 0.00 | 85 | 1009.6 |
| 20260505034906 | 71 | 113 | 1.7 | 4.3 | 0.00 | 0.00 | 0.00 | 85 | 1009.6 |
| 20260505033405 | 71 | 145 | 1.7 | 5.2 | 0.00 | 0.00 | 0.00 | 85 | 1009.6 |
| 20260505031906 | 72 | 114 | 1.7 | 4.3 | 0.00 | 0.00 | 0.00 | 84 | 1009.7 |
| 20260505030905 | 72 | 163 | 2.6 | 5.2 | 0.00 | 0.00 | 0.00 | 83 | 1009.7 |
| 20260505025405 | 72 | 115 | 1.7 | 4.3 | 0.00 | 0.00 | 0.00 | 83 | 1009.6 |
| 20260505023905 | 73 | 163 | 2.6 | 5.2 | 0.00 | 0.00 | 0.00 | 82 | 1009.5 |
| 20260505022405 | 73 | 127 | 2.6 | 5.2 | 0.00 | 0.00 | 0.00 | 80 | 1009.6 |
| 20260505021405 | 74 | 160 | 4.3 | 6.1 | 0.00 | 0.00 | 0.00 | 80 | 1009.5 |
| 20260505020905 | 74 | 120 | 2.6 | 5.2 | 0.00 | 0.00 | 0.00 | 80 | 1009.4 |
| 20260505015905 | 74 | 131 | 2.6 | 7.8 | 0.00 | 0.00 | 0.00 | 80 | 1009.4 |
| 20260505014405 | 74 | 115 | 3.5 | 6.1 | 0.00 | 0.00 | 0.00 | 80 | 1009.3 |
| 20260505013906 | 74 | 161 | 5.2 | 8.7 | 0.00 | 0.00 | 0.00 | 80 | 1009.1 |
| 20260505012405 | 74 | 138 | 1.7 | 4.3 | 0.00 | 0.00 | 0.00 | 79 | 1009.4 |
| 20260505010906 | 74 | 139 | 2.6 | 7.0 | 0.00 | 0.00 | 0.00 | 78 | 1009.1 |
| 20260505005405 | 74 | 131 | 4.3 | 7.0 | 0.00 | 0.00 | 0.00 | 77 | 1009.0 |
| 20260505003905 | 75 | 122 | 4.3 | 7.8 | 0.00 | 0.00 | 0.00 | 76 | 1009.0 |
| 20260505003405 | 76 | 153 | 5.2 | 10.4 | 0.00 | 0.00 | 0.00 | 75 | 1009.0 |
| 20260505002405 | 76 | 123 | 6.1 | 13.0 | 0.00 | 0.00 | 0.00 | 73 | 1009.0 |
| 20260505001905 | 77 | 122 | 4.3 | 8.7 | 0.00 | 0.00 | 0.00 | 73 | 1009.0 |
| 20260505000905 | 77 | 122 | 5.2 | 13.0 | 0.00 | 0.00 | 0.00 | 73 | 1009.0 |
| 20260504235905 | 77 | 126 | 5.2 | 10.4 | 0.00 | 0.00 | 0.00 | 73 | 1009.2 |
| 20260504235405 | 77 | 152 | 6.1 | 10.4 | 0.00 | 0.00 | 0.00 | 73 | 1009.3 |
| 20260504234905 | 77 | 157 | 5.2 | 8.7 | 0.00 | 0.00 | 0.00 | 72 | 1009.3 |
| 20260504233905 | 78 | 127 | 4.3 | 11.3 | 0.00 | 0.00 | 0.00 | 72 | 1009.4 |
| 20260504233405 | 78 | 147 | 5.2 | 10.4 | 0.00 | 0.00 | 0.00 | 71 | 1009.3 |
| 20260504230405 | 78 | 115 | 5.2 | 8.7 | 0.00 | 0.00 | 0.00 | 71 | 1009.7 |
| 20260504225405 | 79 | 121 | 5.2 | 10.4 | 0.00 | 0.00 | 0.00 | 70 | 1009.7 |
| 20260504224905 | 79 | 108 | 4.3 | 10.4 | 0.00 | 0.00 | 0.00 | 70 | 1009.7 |
| 20260504224405 | 80 | 144 | 4.3 | 8.7 | 0.00 | 0.00 | 0.00 | 70 | 1009.7 |
| 20260504223905 | 80 | 98 | 6.1 | 10.4 | 0.00 | 0.00 | 0.00 | 69 | 1009.8 |
| 20260504222905 | 79 | 116 | 5.2 | 10.4 | 0.00 | 0.00 | 0.00 | 71 | 1010.0 |
| 20260504221406 | 78 | 131 | 5.2 | 7.8 | 0.00 | 0.00 | 0.00 | 71 | 1010.2 |
| 20260504215905 | 78 | 135 | 5.2 | 12.2 | 0.00 | 0.00 | 0.00 | 70 | 1010.3 |
| 20260504214905 | 79 | 147 | 5.2 | 10.4 | 0.00 | 0.00 | 0.00 | 69 | 1010.4 |
| 20260504214405 | 80 | 142 | 4.3 | 13.9 | 0.00 | 0.00 | 0.00 | 68 | 1010.5 |
| 20260504213905 | 81 | 153 | 6.1 | 10.4 | 0.00 | 0.00 | 0.00 | 67 | 1010.5 |
| 20260504213405 | 81 | 133 | 6.1 | 11.3 | 0.00 | 0.00 | 0.00 | 67 | 1010.5 |
| 20260504212905 | 81 | 106 | 6.1 | 11.3 | 0.00 | 0.00 | 0.00 | 67 | 1010.5 |
| 20260504212405 | 82 | 112 | 5.2 | 10.4 | 0.00 | 0.00 | 0.00 | 66 | 1010.5 |
| 20260504211905 | 82 | 108 | 6.1 | 10.4 | 0.00 | 0.00 | 0.00 | 65 | 1010.6 |
| 20260504210905 | 82 | 129 | 6.1 | 13.0 | 0.00 | 0.00 | 0.00 | 65 | 1010.7 |
| 20260504205405 | 82 | 111 | 5.2 | 10.4 | 0.00 | 0.00 | 0.00 | 64 | 1010.7 |
| 20260504204906 | 82 | 104 | 5.2 | 11.3 | 0.00 | 0.00 | 0.00 | 65 | 1010.7 |
| 20260504202905 | 82 | 137 | 5.2 | 10.4 | 0.00 | 0.00 | 0.00 | 63 | 1011.1 |
| 20260504201905 | 83 | 131 | 5.2 | 10.4 | 0.00 | 0.00 | 0.00 | 62 | 1011.2 |
| 20260504200904 | 83 | 122 | 4.3 | 8.7 | 0.00 | 0.00 | 0.00 | 64 | 1011.4 |
| 20260504194905 | 83 | 160 | 5.2 | 8.7 | 0.00 | 0.00 | 0.00 | 63 | 1011.5 |
| 20260504194405 | 83 | 164 | 4.3 | 8.7 | 0.00 | 0.00 | 0.00 | 64 | 1011.5 |
| 20260504192404 | 84 | 180 | 6.1 | 12.2 | 0.00 | 0.00 | 0.00 | 65 | 1011.8 |
| 20260504191905 | 84 | 166 | 5.2 | 8.7 | 0.00 | 0.00 | 0.00 | 64 | 1011.9 |
| 20260504190404 | 83 | 155 | 6.1 | 10.4 | 0.00 | 0.00 | 0.00 | 61 | 1012.0 |
| 20260504185905 | 83 | 135 | 5.2 | 10.4 | 0.00 | 0.00 | 0.00 | 62 | 1012.1 |
| 20260504184405 | 84 | 154 | 6.1 | 10.4 | 0.00 | 0.00 | 0.00 | 63 | 1012.1 |
| 20260504182905 | 84 | 186 | 5.2 | 12.2 | 0.00 | 0.00 | 0.00 | 63 | 1012.2 |
| 20260504182405 | 84 | 143 | 6.1 | 11.3 | 0.00 | 0.00 | 0.00 | 61 | 1012.6 |
| 20260504181405 | 84 | 184 | 6.1 | 8.7 | 0.00 | 0.00 | 0.00 | 62 | 1012.7 |
| 20260504174405 | 82 | 171 | 6.1 | 13.9 | 0.00 | 0.00 | 0.00 | 63 | 1012.9 |
| 20260504171905 | 82 | 169 | 5.2 | 10.4 | 0.00 | 0.00 | 0.00 | 64 | 1013.2 |
| 20260504160404 | 80 | 174 | 4.3 | 10.4 | 0.00 | 0.00 | 0.00 | 65 | 1014.2 |
| 20260504140905 | 72 | 130 | 4.3 | 7.8 | 0.00 | 0.00 | 0.00 | 76 | 1014.0 |
| 20260504130404 | 61 | 322 | 0.0 | 1.7 | 0.00 | 0.00 | 0.00 | 94 | 1014.2 |